Tracking 30101 objects as of 13-Dec-2024
HD Live streaming from Space Station
objects crossing your sky now

STARLINK-6181

Track STARLINK-6181 now!
10-day predictions
STARLINK-6181 is classified as:


NORAD ID: 56888
Int'l Code: 2023-083N
Perigee: 565.3 km
Apogee: 567.2 km
Inclination: 43.0 °
Period: 95.8 minutes
Semi major axis: 6937 km
RCS: Unknown
Launch date: June 12, 2023
Source: United States (US)
Launch site: AIR FORCE EASTERN TEST RANGE (AFETR)
Your satellite tracking list
Your tracking list is empty




NASA's NSSDC Master Catalog

Two Line Element Set (TLE):
1 56888U 23083N   24348.11660710  .00003592  00000-0  28094-3 0  9999
2 56888  43.0064  15.3644 0001389 270.6404  89.4280 15.02521721 83740
Source of the keplerian elements: AFSPC